[[{"header":{"parameterUnit":"m.s-1","parameterCategory":2,"la1":30.2992,"la2":30.254,"lo1":-89.0895,"lo2":-89.0443,"dy":0.0025,"dx":0.0025,"nx":19,"ny":19,"refTime":"2026-05-09T03:00:00:Z","depth":"0","parameterNumber":2,"parameterNumberName":"U-component_of_CURRENTS"},"data":[0,0,0,0.1886,0.1888,0.1966,0.1967,0.2089,0.209,0,0,0,0,0,0,0,0,0,0,0,0.1851,0.1851,0.1886,0.1888,0.1966,0.1967,0.2089,0.209,0,0,0,0,0,0,0,0,0,0,0,0.1851,0.1851,0.1852,0.1888,0.1966,0.1967,0.2089,0.2025,0,0,0,0,0,0,0,0,0,0,0.1946,0.1908,0.1851,0.1852,0.1889,0.1966,0.1967,0.2021,0.2029,0.2059,0,0.2064,0,0.2083,0.2099,0.2099,0,0,0,0.1891,0.1901,0.1925,0.1852,0.1889,0.1966,0.1932,0.2025,0.2034,0.2069,0.2065,0.207,0.2085,0.2099,0.21,0.2146,0.2146,0,0,0.1887,0.1867,0.1919,0.193,0.1901,0.1929,0.1934,0.203,0.2034,0.2066,0.2073,0.2087,0.21,0.2101,0.2146,0.2146,0,0,0,0.1872,0.1864,0.1885,0.1925,0.1939,0.1931,0.1937,0.203,0.2037,0.2075,0.2089,0.2101,0.2103,0.2147,0.2146,0.2162,0,0,0,0.187,0.1855,0.1883,0.1872,0.1937,0.1983,0.1934,0.203,0.2042,0.2088,0.2101,0.2104,0.2147,0.2147,0.2162,0.2146,0,0,0,0.1849,0.1854,0.186,0.1871,0.1904,0.1982,0.1995,0.2033,0.2051,0.2099,0.2104,0.2148,0.2147,0.2163,0.2147,0.2176,0,0,0,0.183,0.1834,0.1859,0.1866,0.1903,0.1943,0.1994,0.2032,0.2068,0.2102,0.2147,0.2146,0.2163,0.2148,0.2177,0.2204,0.2205,0,0,0.1824,0.1832,0.1836,0.1861,0.1883,0.1933,0.1971,0.2039,0.2061,0.212,0.2121,0.2162,0.2148,0.2176,0.2143,0.2147,0,0,0,0.1827,0.1825,0.1837,0.1855,0.1894,0.1941,0.2004,0.2038,0.2089,0.2078,0.2136,0.2125,0.2145,0.216,0.2162,0.2216,0.2142,0.2142,0.2142,0.1775,0.18,0.1809,0.1847,0.188,0.1949,0.1995,0.2045,0.2081,0.2093,0.212,0.2122,0.2137,0.214,0.2194,0.2111,0.2111,0.2111,0.2111,0.1746,0.1751,0.1789,0.1808,0.1865,0.1905,0.2,0.2036,0.2107,0.2108,0.2128,0.2151,0.2143,0.22,0.2112,0.2112,0.2112,0.2112,0.2112,0.1706,0.1717,0.173,0.1761,0.1807,0.188,0.1943,0.2015,0.209,0.2119,0.2153,0.2153,0.2221,0.214,0.214,0.214,0.214,0.214,0.214,0.166,0.1681,0.168,0.1718,0.1739,0.1795,0.1908,0.1975,0.2085,0.2147,0.2148,0.2217,0.2131,0.2151,0.2141,0.2141,0.2141,0.2141,0.2141,0.1599,0.1624,0.1621,0.163,0.1675,0.1701,0.1821,0.1967,0.206,0.2117,0.2264,0.218,0.218,0.2178,0.2198,0.2201,0.2201,0.2201,0.2201,0.1556,0.1569,0.1565,0.1568,0.1593,0.1656,0.1724,0.1889,0.2142,0.2272,0.2319,0.2328,0.2323,0.2331,0.2326,0.2348,0.2389,0.2389,0.239,0.1499,0.1526,0.1499,0.1527,0.1548,0.16,0.1637,0.1777,0.2183,0.2402,0.239,0.2382,0.2397,0.2385,0.2399,0.2387,0.2424,0,0]},{"header":{"parameterUnit":"m.s-1","parameterCategory":2,"la1":30.2992,"la2":30.254,"lo1":-89.0895,"lo2":-89.0443,"dy":0.0025,"dx":0.0025,"nx":19,"ny":19,"refTime":"2026-05-09T03:00:00:Z","depth":"0","parameterNumber":3,"parameterNumberName":"V-component_of_CURRENTS"},"data":[0,0,0,0.0554,0.0554,0.0538,0.0538,0.0472,0.0471,0,0,0,0,0,0,0,0,0,0,0,0.0556,0.0556,0.0554,0.0554,0.0538,0.0538,0.0472,0.0471,0,0,0,0,0,0,0,0,0,0,0,0.0556,0.0556,0.0556,0.0554,0.0538,0.0538,0.0472,0.0494,0,0,0,0,0,0,0,0,0,0,0.0514,0.0527,0.0556,0.0556,0.0554,0.0538,0.0538,0.0495,0.0492,0.0468,0,0.0469,0,0.0472,0.0466,0.0466,0,0,0,0.0546,0.0529,0.0525,0.0556,0.0554,0.0538,0.0543,0.0494,0.0491,0.0464,0.0468,0.0466,0.0471,0.0466,0.0466,0.0419,0.0419,0,0,0.0547,0.055,0.0527,0.0523,0.0553,0.0544,0.0543,0.0492,0.0489,0.0468,0.0465,0.047,0.0465,0.0465,0.0419,0.0419,0,0,0,0.0555,0.0551,0.0549,0.0525,0.0528,0.0543,0.0542,0.0491,0.049,0.0464,0.0469,0.0465,0.0464,0.0419,0.0419,0.0505,0,0,0,0.0555,0.0556,0.0549,0.055,0.053,0.0517,0.0542,0.0494,0.0489,0.047,0.0465,0.0463,0.0419,0.0419,0.0503,0.0534,0,0,0,0.0556,0.0556,0.0555,0.055,0.0548,0.0518,0.0514,0.0493,0.0492,0.0466,0.0463,0.0419,0.0419,0.0501,0.053,0.0554,0,0,0,0.0558,0.0567,0.0555,0.0562,0.0548,0.0552,0.0515,0.0507,0.049,0.0465,0.0419,0.0419,0.05,0.0527,0.0552,0.0597,0.0612,0,0,0.0573,0.0569,0.0572,0.0562,0.0583,0.0554,0.0572,0.053,0.048,0.0431,0.043,0.0504,0.053,0.0554,0.0601,0.0616,0,0,0,0.0579,0.0587,0.0589,0.0595,0.0591,0.0604,0.057,0.0546,0.0509,0.0471,0.0481,0.0493,0.0507,0.0528,0.0539,0.0465,0.042,0.042,0.042,0.0627,0.0618,0.0635,0.0635,0.064,0.0634,0.0634,0.0591,0.0544,0.0535,0.0547,0.06,0.0624,0.0633,0.0556,0.0531,0.0531,0.0531,0.0531,0.0662,0.0668,0.067,0.0683,0.0694,0.0707,0.0685,0.0663,0.0649,0.0594,0.0603,0.0597,0.0651,0.0563,0.0536,0.0536,0.0535,0.0534,0.0534,0.0679,0.0684,0.0688,0.0714,0.0753,0.0757,0.0793,0.0761,0.0709,0.0731,0.0724,0.0722,0.0659,0.073,0.073,0.0731,0.0731,0.0731,0.0731,0.0696,0.0703,0.0724,0.0755,0.0789,0.0832,0.0852,0.0859,0.0841,0.0809,0.0809,0.0665,0.066,0.0667,0.0735,0.0734,0.0734,0.0734,0.0733,0.0702,0.0718,0.0749,0.0778,0.0861,0.0938,0.0956,0.0994,0.098,0.0979,0.0805,0.0843,0.0815,0.0805,0.0814,0.0916,0.0916,0.0916,0.0916,0.072,0.0724,0.0788,0.084,0.0919,0.0988,0.1101,0.1132,0.1008,0.0921,0.0836,0.0797,0.0793,0.0759,0.075,0.0755,0.084,0.084,0.0839,0.0735,0.0757,0.0804,0.0859,0.0952,0.1049,0.1175,0.125,0.1029,0.0825,0.0725,0.0728,0.0655,0.0655,0.0585,0.0579,0.0581,0,0]}],[{"header":{"parameterUnit":"m.s-1","parameterCategory":2,"la1":30.2992,"la2":30.254,"lo1":-89.0895,"lo2":-89.0443,"dy":0.0025,"dx":0.0025,"nx":19,"ny":19,"refTime":"2026-05-09T03:00:00:Z","depth":"2","parameterNumber":2,"parameterNumberName":"U-component_of_CURRENTS"},"data":[0,0,0,0.0891,0.0892,0.0929,0.0929,0.0805,0.0803,0,0,0,0,0,0,0,0,0,0,0,0.0934,0.0935,0.0891,0.0892,0.0929,0.0929,0.0805,0.0803,0,0,0,0,0,0,0,0,0,0,0,0.0933,0.0935,0.0937,0.0892,0.0929,0.0929,0.0806,0.0824,0,0,0,0,0,0,0,0,0,0,0.0811,0.0889,0.0935,0.0937,0.0892,0.0929,0.093,0.0827,0.0823,0.0733,0,0.0779,0,0.0751,0.0789,0.0789,0,0,0,0.0908,0.0894,0.087,0.0937,0.0892,0.0929,0.0917,0.0826,0.0821,0.0727,0.0777,0.0772,0.0749,0.0788,0.0787,0.0791,0.0793,0,0,0.0906,0.0956,0.0875,0.0869,0.0947,0.0916,0.0918,0.0826,0.0854,0.0777,0.0769,0.0747,0.0787,0.0785,0.079,0.0792,0,0,0,0.0889,0.0956,0.094,0.0875,0.0875,0.0916,0.0919,0.086,0.0848,0.0767,0.0745,0.0785,0.0783,0.0788,0.079,0.0777,0,0,0,0.0889,0.0942,0.094,0.0972,0.0879,0.0893,0.0956,0.0857,0.0844,0.0746,0.0785,0.0781,0.0786,0.0789,0.0774,0.0805,0,0,0,0.0924,0.0945,0.0958,0.0974,0.0972,0.0894,0.088,0.0855,0.0826,0.0788,0.078,0.0785,0.0789,0.0771,0.0799,0.0821,0,0,0,0.0958,0.0955,0.0962,0.0957,0.0972,0.0919,0.0881,0.0899,0.0886,0.0784,0.0786,0.079,0.077,0.0796,0.0818,0.0688,0.0691,0,0,0.0941,0.0956,0.0941,0.0943,0.0871,0.0913,0.0878,0.0888,0.0908,0.0801,0.0803,0.0775,0.0799,0.0821,0.0907,0.0903,0,0,0,0.0922,0.0936,0.091,0.0897,0.0852,0.0859,0.0869,0.0896,0.094,0.0912,0.0857,0.0875,0.0886,0.0805,0.0804,0.0808,0.0808,0.0807,0.0807,0.0901,0.0885,0.0856,0.0845,0.0838,0.0844,0.0864,0.0921,0.0913,0.1007,0.0922,0.1018,0.0935,0.0931,0.0971,0.0971,0.0971,0.0971,0.0971,0.0845,0.0824,0.0849,0.0836,0.0832,0.085,0.0877,0.0934,0.0979,0.1009,0.1018,0.087,0.0928,0.0972,0.0972,0.0972,0.0972,0.0972,0.0972,0.0806,0.0797,0.0849,0.087,0.0889,0.091,0.0944,0.1012,0.1036,0.1034,0.099,0.0987,0.0973,0.107,0.1071,0.1071,0.1071,0.1071,0.1072,0.0742,0.0787,0.0839,0.0898,0.0929,0.0963,0.1049,0.1042,0.1044,0.1021,0.1019,0.1052,0.1049,0.0984,0.1076,0.1075,0.1074,0.1074,0.1074,0.0699,0.0775,0.0806,0.0863,0.0894,0.0876,0.0967,0.0932,0.0961,0.0891,0.0976,0.0977,0.0972,0.0972,0.0908,0.0976,0.0976,0.0976,0.0976,0.0663,0.0705,0.0742,0.0789,0.0781,0.0805,0.0736,0.0741,0.0796,0.0827,0.0834,0.0761,0.0768,0.0749,0.0755,0.0686,0.0695,0.0695,0.0695,0.0633,0.0629,0.063,0.0699,0.0724,0.0659,0.0618,0.0644,0.0647,0.0688,0.0832,0.0948,0.0854,0.0859,0.0842,0.0846,0.0739,0,0]},{"header":{"parameterUnit":"m.s-1","parameterCategory":2,"la1":30.2992,"la2":30.254,"lo1":-89.0895,"lo2":-89.0443,"dy":0.0025,"dx":0.0025,"nx":19,"ny":19,"refTime":"2026-05-09T03:00:00:Z","depth":"2","parameterNumber":3,"parameterNumberName":"V-component_of_CURRENTS"},"data":[0,0,0,-0.0479,-0.048,-0.0526,-0.0526,-0.0626,-0.0627,0,0,0,0,0,0,0,0,0,0,0,-0.0436,-0.0436,-0.0479,-0.048,-0.0526,-0.0526,-0.0625,-0.0627,0,0,0,0,0,0,0,0,0,0,0,-0.0437,-0.0436,-0.0436,-0.0481,-0.0526,-0.0526,-0.0625,-0.0579,0,0,0,0,0,0,0,0,0,0,-0.0528,-0.0463,-0.0436,-0.0436,-0.0481,-0.0526,-0.0526,-0.0576,-0.0582,-0.0619,0,-0.0609,0,-0.0637,-0.0635,-0.0635,0,0,0,-0.0474,-0.0458,-0.0499,-0.0436,-0.0481,-0.0526,-0.0504,-0.0579,-0.0585,-0.0626,-0.0611,-0.0615,-0.0638,-0.0636,-0.0636,-0.0658,-0.0657,0,0,-0.0471,-0.0424,-0.0494,-0.0503,-0.0474,-0.0502,-0.0505,-0.0582,-0.0565,-0.0611,-0.0618,-0.064,-0.0637,-0.0637,-0.0658,-0.0658,0,0,0,-0.0468,-0.0422,-0.0459,-0.0498,-0.0512,-0.0504,-0.0507,-0.056,-0.058,-0.0619,-0.0641,-0.0637,-0.0639,-0.0659,-0.0658,-0.0668,0,0,0,-0.0466,-0.0422,-0.0458,-0.0428,-0.051,-0.0527,-0.0483,-0.0574,-0.0584,-0.0641,-0.0637,-0.064,-0.066,-0.0659,-0.067,-0.0613,0,0,0,-0.0438,-0.0419,-0.0424,-0.0426,-0.0455,-0.0527,-0.0549,-0.0576,-0.0599,-0.0635,-0.064,-0.066,-0.0659,-0.0671,-0.0617,-0.0598,0,0,0,-0.0391,-0.0386,-0.0422,-0.0428,-0.0455,-0.0507,-0.0549,-0.0557,-0.0576,-0.0638,-0.066,-0.0658,-0.0671,-0.0619,-0.06,-0.0554,-0.054,0,0,-0.0371,-0.0381,-0.0394,-0.043,-0.0482,-0.0501,-0.0539,-0.0564,-0.0568,-0.0639,-0.0639,-0.0669,-0.0617,-0.0598,-0.046,-0.0449,0,0,0,-0.0382,-0.0374,-0.0397,-0.0432,-0.0491,-0.0509,-0.0549,-0.0552,-0.0562,-0.0576,-0.0633,-0.0597,-0.0587,-0.0562,-0.0553,-0.065,-0.0651,-0.0651,-0.0651,-0.0343,-0.0382,-0.0397,-0.0438,-0.0456,-0.0514,-0.0528,-0.0533,-0.0567,-0.0534,-0.0582,-0.053,-0.0504,-0.0497,-0.0586,-0.0586,-0.0586,-0.0586,-0.0586,-0.0339,-0.0355,-0.0377,-0.0385,-0.0432,-0.0445,-0.0491,-0.0503,-0.0522,-0.0525,-0.0518,-0.0542,-0.0488,-0.0586,-0.0586,-0.0586,-0.0586,-0.0586,-0.0586,-0.0324,-0.033,-0.031,-0.0318,-0.0331,-0.0377,-0.0355,-0.0392,-0.0457,-0.0479,-0.0437,-0.0436,-0.0532,-0.0476,-0.0475,-0.0475,-0.0475,-0.0475,-0.0474,-0.0323,-0.0301,-0.0253,-0.0248,-0.0237,-0.0239,-0.0236,-0.0254,-0.0308,-0.038,-0.0381,-0.0492,-0.0495,-0.0522,-0.0469,-0.047,-0.0471,-0.0471,-0.0472,-0.0286,-0.0249,-0.0205,-0.0166,-0.0162,-0.0123,-0.012,-0.0126,-0.0166,-0.0219,-0.0346,-0.0351,-0.0331,-0.0338,-0.0359,-0.0266,-0.0266,-0.0266,-0.0266,-0.0272,-0.0247,-0.0186,-0.0122,-0.0109,-0.0079,0.0015,0.0031,-0.007,-0.0122,-0.0128,-0.016,-0.0171,-0.0144,-0.0155,-0.0173,-0.0032,-0.0031,-0.0031,-0.0254,-0.0257,-0.0211,-0.0137,-0.0081,-0.0046,0.0114,0.0224,0.0075,-0.0021,-0.0077,-0.0252,-0.0318,-0.0329,-0.0305,-0.0316,-0.0353,0,0]}],[{"header":{"parameterUnit":"m.s-1","parameterCategory":2,"la1":30.2992,"la2":30.254,"lo1":-89.0895,"lo2":-89.0443,"dy":0.0025,"dx":0.0025,"nx":19,"ny":19,"refTime":"2026-05-09T03:00:00:Z","depth":"4","parameterNumber":2,"parameterNumberName":"U-component_of_CURRENTS"},"data":[0,0,0,-0.0063,-0.0062,-0.0022,-0.0022,-0.0003,-0.0002,0,0,0,0,0,0,0,0,0,0,0,-0.0087,-0.0087,-0.0063,-0.0062,-0.0022,-0.0022,-0.0003,-0.0002,0,0,0,0,0,0,0,0,0,0,0,-0.0087,-0.0087,-0.0087,-0.0062,-0.0022,-0.0022,-0.0003,-0.0027,0,0,0,0,0,0,0,0,0,0,-0.0062,-0.0081,-0.0087,-0.0087,-0.0061,-0.0022,-0.0022,-0.0028,-0.0025,-0.0028,0,-0.0022,0,-0.0004,-0.0001,-0.0001,0,0,0,-0.0069,-0.0083,-0.0065,-0.0087,-0.0061,-0.0022,-0.0042,-0.0026,-0.0023,-0.0025,-0.0022,-0.0021,-0.0004,-0.0001,-0.0001,0.002,0.002,0,0,-0.0072,-0.0086,-0.0067,-0.0064,-0.0052,-0.0043,-0.0041,-0.0024,-0.0027,-0.0022,-0.002,-0.0004,-0.0001,-0.0001,0.002,0.002,0,0,0,-0.0073,-0.0088,-0.0071,-0.0065,-0.0051,-0.0042,-0.0039,-0.0028,-0.002,-0.0019,-0.0004,-0.0001,-0.0001,0.002,0.002,0.0038,0,0,0,-0.0075,-0.0088,-0.0072,-0.0081,-0.0051,-0.0034,-0.0043,-0.0022,-0.0019,-0.0004,-0.0001,-0.0001,0.002,0.002,0.0037,0.0035,0,0,0,-0.0089,-0.0089,-0.0084,-0.0082,-0.0059,-0.0034,-0.0026,-0.0021,-0.0009,-0.0001,-0.0,0.0019,0.002,0.0036,0.0034,0.0041,0,0,0,-0.0106,-0.0103,-0.0084,-0.0074,-0.0059,-0.0032,-0.0026,-0.001,-0.0004,-0.0001,0.002,0.002,0.0036,0.0034,0.004,0.0051,0,0,0,-0.0111,-0.0104,-0.0096,-0.0078,-0.0052,-0.0038,-0.0016,-0.0006,-0.0001,0.001,0.0011,0.0037,0.0034,0.004,0.0063,0,0,0,0,-0.0103,-0.0099,-0.0088,-0.0067,-0.0042,-0.0021,-0.0005,0.0001,0.0019,0.0006,0.0037,0.0034,0.0037,0.0042,0.0021,0.0021,0.0021,0.0021,0.0021,-0.0125,-0.0103,-0.0091,-0.0063,-0.0044,-0.001,0.0005,0.0017,0.0024,0.0033,0.0049,0.0064,0.007,0.0053,0.0053,0.0053,0.0054,0.0054,0.0054,-0.0129,-0.0118,-0.0093,-0.0075,-0.0043,-0.0022,0.0016,0.0029,0.0057,0.0056,0.0059,0.0061,0.0055,0.0055,0.0055,0.0055,0.0054,0.0054,0.0054,-0.0141,-0.0134,-0.0123,-0.0095,-0.0065,-0.0026,0.0008,0.0039,0.0063,0.008,0.0087,0.0072,0.007,0.0088,0.0088,0.0088,0.0088,0.0088,0.0088,-0.0157,-0.0146,-0.014,-0.0113,-0.0092,-0.0054,0.0005,0.0037,0.0074,0.01,0.0086,0.0075,0.0074,0.0072,0.0088,0.0088,0.0088,0.0088,0.0088,-0.0165,-0.0166,-0.0154,-0.0142,-0.0094,-0.0063,-0.0021,0.0059,0.009,0.0122,0.011,0.0109,0.01,0.0098,0.0097,0.0121,0.0121,0.0122,0,-0.0175,-0.0174,-0.0155,-0.0132,-0.0092,-0.0059,0.0005,0.0053,0.0098,0.0093,0.0082,0.0065,0.0065,0.0051,0.005,0.0046,0,0,0,-0.0179,-0.0173,-0.0157,-0.0132,-0.0081,-0.001,0.0029,0.0059,0.0078,0.0136,0.0126,0.0125,0.0103,0.0089,0.0073,0.0072,0.0067,0,0]},{"header":{"parameterUnit":"m.s-1","parameterCategory":2,"la1":30.2992,"la2":30.254,"lo1":-89.0895,"lo2":-89.0443,"dy":0.0025,"dx":0.0025,"nx":19,"ny":19,"refTime":"2026-05-09T03:00:00:Z","depth":"4","parameterNumber":3,"parameterNumberName":"V-component_of_CURRENTS"},"data":[0,0,0,0.0051,0.005,0.0012,0.0011,-0.0019,-0.0019,0,0,0,0,0,0,0,0,0,0,0,0.0059,0.0059,0.0051,0.005,0.0012,0.0011,-0.0019,-0.0019,0,0,0,0,0,0,0,0,0,0,0,0.0059,0.0059,0.0059,0.005,0.0012,0.0011,-0.0019,0.0003,0,0,0,0,0,0,0,0,0,0,0.0037,0.0039,0.0059,0.0059,0.005,0.0012,0.0011,0.0003,0.0001,0.0007,0,0.0003,0,-0.0001,-0.002,-0.002,0,0,0,0.0039,0.0041,0.004,0.0059,0.005,0.0012,0.0026,0.0002,-0.0,0.0004,0.0003,0.0002,-0.0002,-0.002,-0.002,-0.0052,-0.0052,0,0,0.0042,0.0043,0.0042,0.0039,0.0044,0.0027,0.0025,0.0,-0.0005,0.0003,0.0001,-0.0002,-0.002,-0.002,-0.0051,-0.0052,0,0,0,0.0055,0.0044,0.0043,0.004,0.0036,0.0026,0.0024,-0.0005,-0.0002,0.0001,-0.0003,-0.002,-0.002,-0.0051,-0.0051,-0.0065,0,0,0,0.0056,0.0053,0.0044,0.0042,0.0036,0.0011,0.0019,-0.0001,-0.0004,-0.0002,-0.002,-0.002,-0.0051,-0.0051,-0.0064,-0.0061,0,0,0,0.006,0.0053,0.0052,0.0043,0.0032,0.0012,0.0011,-0.0002,-0.0005,-0.002,-0.002,-0.0051,-0.0051,-0.0063,-0.006,-0.0073,0,0,0,0.0058,0.0055,0.0052,0.005,0.0033,0.0018,0.0011,-0.0016,-0.0032,-0.002,-0.0051,-0.0051,-0.0063,-0.0059,-0.0072,-0.0034,0,0,0,0.0055,0.0054,0.0055,0.0052,0.0048,0.0022,0.0004,-0.0026,-0.0039,-0.0042,-0.0043,-0.0065,-0.006,-0.0073,-0.0073,0,0,0,0,0.0056,0.0056,0.0054,0.0051,0.004,0.0019,-0.0012,-0.0031,-0.0067,-0.0048,-0.0074,-0.007,-0.0078,-0.0054,-0.0055,-0.0054,-0.0054,-0.0054,-0.0054,0.0041,0.0049,0.0048,0.005,0.004,0.0007,-0.0018,-0.005,-0.0066,-0.0094,-0.0089,-0.0117,-0.0094,-0.0102,-0.0103,-0.0103,-0.0103,-0.0103,-0.0103,0.0037,0.0036,0.0045,0.0046,0.0034,0.0013,-0.0026,-0.0055,-0.0102,-0.011,-0.0117,-0.008,-0.0104,-0.0104,-0.0104,-0.0104,-0.0104,-0.0103,-0.0103,0.0024,0.0024,0.0031,0.0033,0.0023,0.0002,-0.0023,-0.0068,-0.0108,-0.0126,-0.0114,-0.0126,-0.0117,-0.0144,-0.0144,-0.0144,-0.0144,-0.0144,-0.0144,0.0002,0.0011,0.0011,0.0015,0.0009,-0.0007,-0.0041,-0.0061,-0.0103,-0.0121,-0.0139,-0.0131,-0.0129,-0.0119,-0.0145,-0.0144,-0.0144,-0.0144,-0.0144,-0.0019,-0.0013,-0.0012,-0.0013,-0.002,-0.0027,-0.0041,-0.0055,-0.0084,-0.0094,-0.0116,-0.0118,-0.0107,-0.0106,-0.0095,-0.0114,-0.0114,-0.0113,0,-0.0039,-0.0034,-0.0031,-0.0036,-0.0046,-0.0043,-0.0048,-0.0053,-0.0085,-0.0097,-0.0103,-0.0131,-0.0131,-0.0119,-0.0118,-0.0105,0,0,0,-0.0055,-0.0047,-0.0052,-0.0048,-0.006,-0.0058,-0.0052,-0.0057,-0.0077,-0.0057,-0.0103,-0.0106,-0.0088,-0.0147,-0.0133,-0.0132,-0.0115,0,0]}]]